DELTA 1 DEB, 21377

Orbit data source: Space-Track

DELTA 1 DEB, 21377 is space debris in SSO originally from a launch on Thu, 12 Jun 1975 UTC launched from the Air Force Western Test Range (AFWTR). Debris objects in space refer to the collection of defunct objects orbiting the Earth. Examples of debris include non-operational satellites, rocket bodies, and fragments generated from explosions, collisions, or faulty payload assembly.

Loading next visibility...
Identifier
21377, 1975-052CX
Orbit
SSO
Country
Flag of USUS
Related business
Manufacturer
Unknown
Mission
Spacecraft
Bus & Motor
Unknown
Mass
Unknown
Launch date (UTC)
1975-06-12 (51 years ago)
Launch vehicle
Unknown
Launch site
Air Force Western Test Range (AFWTR)
Object type
Payload
Rocket body
Debris
Shape & HBR
Unknown shape, 0.2 m
Radar Cross Section
Small (<0.1 m²)

Expand to show TLE details & history
Last TLE update: 23 hours ago

TLE from 23 hours ago
0 DELTA 1 DEB
1 21377U 75052CX  25349.99542588  .00001542  00000-0  26788-2 0  9997
2 21377 100.2980 353.3672 0223617 100.4385 324.6181 13.36179703669043
Epoch: 2025-12-15T23:53Z
TLE epoch observation values (Epoch: 2025-12-15T23:53:24.796Z)
Latitude
61.83439°
Longitude
-109.60171°
Altitude
998.521 km
Speed
7.425 km/s
True Right ascension
22h 14m 33s
True Declination
61° 41' 45"
Sunlit
Object was in daylight at epoch
Visualization orbit readout
Latitude
Unknown
Longitude
Unknown
Altitude
Unknown
Speed
Unknown
Apparent Right ascension
Unknown
Apparent Declination
Unknown
Sunlit
N/A
Visualization observer readout
Local Sidereal Time
21:34:51
Azimuth
Unknown
Elevation
Unknown
Doppler factor
Unknown
Orbital elements
Apogee altitude
1,288.584 km
Perigee altitude
953.202 km
Semi-major axis
7,499.03 km
Eccentricity
0.02236
Inclination
100.298°
RAAN
353.3672°
Arg. of periapsis
100.4385°
True anomaly
323.09998°
Mean anomaly
324.6181°
Eccentric anomaly
323.86253°
Mean motion
3.34222 °/min
Orbital period
107.71 mins
BSTAR
0.0026788
Loading maneuver chart data...
Computing Atmospheric mass density...
Loading historical data...
Loading historical data...
Loading historical data...
Loading historical data...
Loading historical data...
Loading historical data...
Loading historical data...

Documentation

Showing up to 5 results
|